Address 0xb3a2af58b778c29096ba3d69ae1a7e0601841d12 3

Txn Hash
Block
From
To
Value [Txn Fee]
0xbe4e3435205f01b56d49d56ba823d9080a5b1e8dad65790e77073233046a4ec1103998582021-07-08 2:09:3621 days 9 hrs ago0xb3a2af58b778c29096ba3d69ae1a7e0601841d12OUT 0xe5138f180717a6735b897ce0a7b7f7fe06026be70 BNB0.00169061
0xb9a0a7ad22277833b8ef0bf31f7055e292331fb29c1a68d2b9d10781ca3d3518103998422021-07-08 2:08:4821 days 9 hrs ago0xb3a2af58b778c29096ba3d69ae1a7e0601841d12OUT 0xe5138f180717a6735b897ce0a7b7f7fe06026be70 BNB0.00229718
0x4487ae639d690ce126308de3fc96b7f329990bf8d5e8340586973c6cf1f2e2c9103998292021-07-08 2:08:0921 days 9 hrs ago0xb3a2af58b778c29096ba3d69ae1a7e0601841d12OUT 0xe5138f180717a6735b897ce0a7b7f7fe06026be70 BNB0.00194461
0x401664bf55d6ce88748ab41254b41a96743c232944b510e9fb955f87a2875efa103998222021-07-08 2:07:4821 days 9 hrs ago0xb3a2af58b778c29096ba3d69ae1a7e0601841d12OUT 0xe5138f180717a6735b897ce0a7b7f7fe06026be70 BNB0.00194449
0xbb8757d306260ff85ea585903f7952ae5d335755e06abd0caad6921b7faf65bb103998172021-07-08 2:07:3321 days 9 hrs ago0xb3a2af58b778c29096ba3d69ae1a7e0601841d12OUT 0xe5138f180717a6735b897ce0a7b7f7fe06026be70 BNB0.00194461
0x3951e93a5deb6671c5bc385a4f9f4cde8a62bb7e823f1dbe3f22e0e0f2231ad4103998082021-07-08 2:07:0621 days 9 hrs ago0xb3a2af58b778c29096ba3d69ae1a7e0601841d12OUT 0xe5138f180717a6735b897ce0a7b7f7fe06026be70 BNB0.00194473
0x20ed6dc009e91f7092095dd257f66f3e24c7b801dcb72e5fe3b41512e61ceb90103997972021-07-08 2:06:3321 days 9 hrs ago0xb3a2af58b778c29096ba3d69ae1a7e0601841d12OUT 0xe5138f180717a6735b897ce0a7b7f7fe06026be70 BNB0.00194473
0x68a2a7c081f46dccf444bfacf774156e5a49d9d448cea274f748f19c71ff021e103997862021-07-08 2:06:0021 days 9 hrs ago0xb3a2af58b778c29096ba3d69ae1a7e0601841d12OUT 0xe5138f180717a6735b897ce0a7b7f7fe06026be70 BNB0.00194473
0xd3eec13032da67b33b4591e5d4bffc51b093b01b0798d538e11ddb25e8bd760d103997612021-07-08 2:04:4521 days 9 hrs ago0xb3a2af58b778c29096ba3d69ae1a7e0601841d12OUT 0xe5138f180717a6735b897ce0a7b7f7fe06026be70 BNB0.00218237
0xc27d55f7c835c4b3e56934eead2877e1a809f1dd2a8366e913cfbe9edf57d50a103996832021-07-08 2:00:5121 days 9 hrs ago0xb3a2af58b778c29096ba3d69ae1a7e0601841d12OUT 0xea9c137aec3a2903f8a8428ddb8c1bdbd0c9168a0 BNB0.00044573
0x62967416cc4c67c3851e49faff350dc8d49c39691e6a8474d094c735b64514e1103996552021-07-08 1:59:2721 days 9 hrs ago0xb3a2af58b778c29096ba3d69ae1a7e0601841d12OUT 0xe5138f180717a6735b897ce0a7b7f7fe06026be70 BNB0.00218225
0xdaf73a25a03697149554ff4964cc88483e93a4b94a9e7dd9dae5e5f3439560f1103996442021-07-08 1:58:5421 days 9 hrs ago0xb3a2af58b778c29096ba3d69ae1a7e0601841d12OUT 0x2f502246ca41701be77c59ee418d10971408cfcb0 BNB0.00044573
0xeac36d3a87d282f4b92c5ac371e39630f31dd5903816f1be5e2529482a54e3b3103996322021-07-08 1:58:1821 days 9 hrs ago0xb3a2af58b778c29096ba3d69ae1a7e0601841d12OUT 0xe5138f180717a6735b897ce0a7b7f7fe06026be70 BNB0.00218237
0x6c50e195cfefc8e9020287b4b0d3e01f09d3a7a84e93ab5a3e706864b62bc96b103996272021-07-08 1:58:0321 days 9 hrs ago0xb3a2af58b778c29096ba3d69ae1a7e0601841d12OUT 0xd4622aba4b3de749d49baf735fd1204b4b9377a90 BNB0.00044573
0xe8548ba55a287c9b8b7828b0ce7f120bfb97532566c4ca30c19a72a458fa7b3a103996142021-07-08 1:57:2421 days 9 hrs ago0xb3a2af58b778c29096ba3d69ae1a7e0601841d12OUT 0xe5138f180717a6735b897ce0a7b7f7fe06026be70 BNB0.00218249
0x753abf34b4084c7dba08384f0970d684d0108aeee6f97cac53a7844fd620ad87103996062021-07-08 1:57:0021 days 9 hrs ago0xb3a2af58b778c29096ba3d69ae1a7e0601841d12OUT 0x3ee14a899972325c361a1e1aa2de4a98238f14e40 BNB0.00044573
0xe6586fe02082f5a94a5e83261d42a605e4628311ba52c2ebaca2a3f13cd35017103996002021-07-08 1:56:3421 days 9 hrs ago0xb3a2af58b778c29096ba3d69ae1a7e0601841d12OUT 0xe5138f180717a6735b897ce0a7b7f7fe06026be70 BNB0.00218249
0xd84992b7fc733853a54f0538ccd7442bad07317120ba3a04a916725a2ac649cd103995882021-07-08 1:55:4721 days 9 hrs ago0xb3a2af58b778c29096ba3d69ae1a7e0601841d12OUT 0x5e48d8fa22c3771db9442b6c7f391f58a98814170 BNB0.00044573
0x98630cd5de25d9ffc73eae43514ed05f519fb4a1280a935be6dc5cb35304b721103995822021-07-08 1:55:2121 days 9 hrs ago0xb3a2af58b778c29096ba3d69ae1a7e0601841d12OUT 0xe5138f180717a6735b897ce0a7b7f7fe06026be70 BNB0.00280951
0x066bb2c87de74a1efbe798350fc7e7bfe6624bb47fb9609272f17d1d2380d008103995772021-07-08 1:55:0121 days 9 hrs ago0xb3a2af58b778c29096ba3d69ae1a7e0601841d12OUT 0x09e4c87d2dfc34d6bfc021119490fcf8937c718d0 BNB0.00044573
0xfa55f419a21194c37ca98ac6ba6d50cb0a21d7dd2f5a6c661efeff860d22ac08103993222021-07-08 1:37:2421 days 9 hrs ago0xaa25aa7a19f9c426e07dee59b12f944f4d9f1dd3 IN 0xb3a2af58b778c29096ba3d69ae1a7e0601841d121 BNB0.000378
0x4b78757adfd3fc73d2283ef7ffc7a2572b1f044e4e62627b7794e7bba5ea545598374872021-06-18 9:50:0141 days 1 hr ago0xb3a2af58b778c29096ba3d69ae1a7e0601841d12OUT0xc75ac4e86e7084e23693a6871f762dd9e219a09d0.15 BNB0.00021
0xc77c779c50730a5f70775d07fa87809e76e12e87317562b3244e58e15c0b5d9298374752021-06-18 9:49:2541 days 1 hr ago0xb3a2af58b778c29096ba3d69ae1a7e0601841d12OUT0xa5908efa7af68117bc5f63a1ad0345c3d3ccf9160.2 BNB0.00021
0x1fe70b6ed58d311458ff122e360da1ac3681ee253595eddb5198a38386ab221a98366602021-06-18 9:08:4041 days 2 hrs ago0xb3a2af58b778c29096ba3d69ae1a7e0601841d12OUT 0xdb73dde1867843fdca5244258f2fd4b6dc7b154e0.875 BNB0.00260633
0xf616ee5e611de11ab72f7fa8247bf27ce61b3017f0e17303200ad65670cb402b98364982021-06-18 9:00:3441 days 2 hrs ago0xb3a2af58b778c29096ba3d69ae1a7e0601841d12OUT 0x3b7e171b0c7ded445ae135efbb589edc0467ed070 BNB0.00333015
[ Download CSV Export 
Latest 1 internal transaction
Parent Txn Hash Block From To Value
0x093c2992d961372f4972aa89e190cc2096d01469f7bcc9a9429ccb46636aab0398370432021-06-18 9:27:4941 days 1 hr ago 0x3b7e171b0c7ded445ae135efbb589edc0467ed070xb3a2af58b778c29096ba3d69ae1a7e0601841d120.0999 BNB
[ Download CSV Export 
Loading

Contract Name:
0 BNB

Compiler Version
0

Optimization Enabled:
0 BNB

Other Settings:
-NA-
Block Transaction Gas Used Reward
Age Block Fee Address BC Fee Address Voting Power Jailed Incoming
Block Uncle Number Difficulty Gas Used Reward
Loading